Daytona Beach, FL

3:05 PM EDT on October 16, 2018 (GMT -0400)
Daytona Beach International

Weather History for KDAB - January, 2018

Change the Weather History Date:

Friday, January 12, 2018

  Actual Average Record
Temperature  
Mean Temperature 71 °F 58 °F  
Max Temperature 79 °F 68 °F 83 °F (1947)
Min Temperature 62 °F 47 °F 22 °F (1982)
Degree Days  
Heating Degree Days 0 8  
Month to date heating degree days 142 96  
Since 1 July heating degree days 307 362  
Cooling Degree Days 6 1  
Month to date cooling degree days 14 12  
Year to date cooling degree days 14 12  
Growing Degree Days 20 (Base 50)    
Moisture  
Dew Point 67 °F    
Average Humidity 87    
Maximum Humidity 100    
Minimum Humidity 74    
Precipitation  
Precipitation 0.09 in 0.09 in 2.94 in (1979)
Month to date precipitation 4.87 1.05  
Year to date precipitation 4.87 1.05  
Sea Level Pressure  
Sea Level Pressure 29.89 in    
Wind  
Wind Speed 11 mph (SSW)    
Max Wind Speed 29 mph    
Max Gust Speed 41 mph    
Visibility 9 miles    
Events Rain    
T = Trace of Precipitation, MM = Missing Value Source: NWS Daily Summary

Daily Weather History Graph

Daily Weather History Graph

Search for Another Location

Airport or City:

Astronomy

Jan. 12, 2018 Rise Set
Actual Time 7:19 AM EST 5:46 PM EST
Civil Twilight 6:53 AM EST 6:11 PM EST
Nautical Twilight 6:24 AM EST 6:40 PM EST
Astronomical Twilight 5:55 AM EST 7:09 PM EST
Moon 3:31 AM EST (1/12) 2:37 PM EST (1/12)
Length of Visible Light 11h 17m
Length of Day
10h 26m
Waning Crescent, 16% of the Moon is Illuminated
Jan 12
Waning Crescent
Jan 16
New
Jan 24
First Quarter
Jan 31
Full
Feb 7
Last Quarter

Hourly Weather History & Observations

Time (EST) Temp. Dew Point Humidity Pressure Visibility Wind Dir Wind Speed Gust Speed Precip Events Conditions
12:53 AM 68.0 °F 68.0 °F 100% 29.97 in 10.0 mi South 5.8 mph - N/A   Partly Cloudy
1:53 AM 66.9 °F 66.9 °F 100% 29.97 in 9.0 mi SSW 4.6 mph - N/A   Scattered Clouds
2:53 AM 66.0 °F 66.0 °F 100% 29.96 in 8.0 mi South 4.6 mph - N/A   Scattered Clouds
3:53 AM 66.0 °F 66.0 °F 100% 29.94 in 7.0 mi SSE 3.5 mph - N/A   Mostly Cloudy
4:53 AM 66.9 °F 66.9 °F 100% 29.94 in 9.0 mi South 9.2 mph - N/A   Overcast
5:53 AM 68.0 °F 68.0 °F 100% 29.93 in 8.0 mi South 6.9 mph - N/A   Overcast
6:53 AM 68.0 °F 68.0 °F 100% 29.92 in 8.0 mi South 8.1 mph - N/A   Overcast
7:53 AM 68.0 °F 68.0 °F 100% 29.93 in 10.0 mi SSW 10.4 mph - N/A   Mostly Cloudy
8:06 AM 69.1 °F 69.1 °F 100% 29.92 in 10.0 mi South 8.1 mph - N/A   Mostly Cloudy
8:53 AM 70.0 °F 69.1 °F 97% 29.92 in 10.0 mi South 10.4 mph 19.6 mph N/A   Mostly Cloudy
8:56 AM 70.0 °F 70.0 °F 100% 29.92 in 10.0 mi South 10.4 mph - N/A   Mostly Cloudy
9:14 AM 70.0 °F 69.1 °F 97% 29.92 in 10.0 mi South 10.4 mph 19.6 mph N/A   Overcast
9:53 AM 72.0 °F 70.0 °F 93% 29.91 in 10.0 mi South 12.7 mph 19.6 mph N/A   Mostly Cloudy
10:11 AM 73.9 °F 69.1 °F 85% 29.91 in 10.0 mi South 15.0 mph 24.2 mph N/A   Mostly Cloudy
10:53 AM 75.0 °F 69.1 °F 82% 29.90 in 10.0 mi SSW 13.8 mph 26.5 mph N/A   Mostly Cloudy
11:39 AM 77.0 °F 68.0 °F 74% 29.87 in 10.0 mi SSW 17.3 mph 32.2 mph N/A   Mostly Cloudy
11:53 AM 77.0 °F 69.1 °F 76% 29.86 in 10.0 mi South 16.1 mph 24.2 mph N/A   Mostly Cloudy
12:53 PM 75.9 °F 69.1 °F 79% 29.82 in 10.0 mi South 18.4 mph 33.4 mph N/A   Mostly Cloudy
1:53 PM 78.1 °F 69.1 °F 74% 29.78 in 10.0 mi South 15.0 mph 24.2 mph N/A   Mostly Cloudy
2:53 PM 78.1 °F 69.1 °F 74% 29.76 in 10.0 mi South 17.3 mph 26.5 mph N/A   Mostly Cloudy
3:53 PM 72.0 °F 70.0 °F 93% 29.77 in 3.0 mi SW 20.7 mph 41.4 mph 0.05 in Rain Heavy Rain
4:53 PM 72.0 °F 69.1 °F 91% 29.78 in 10.0 mi SW 11.5 mph 23.0 mph 0.04 in   Mostly Cloudy
5:53 PM 71.1 °F 68.0 °F 90% 29.81 in 10.0 mi SW 11.5 mph - N/A   Mostly Cloudy
6:42 PM 70.0 °F 66.9 °F 90% 29.83 in 10.0 mi SW 9.2 mph - N/A   Overcast
6:53 PM 70.0 °F 66.9 °F 90% 29.83 in 10.0 mi SW 10.4 mph - N/A   Mostly Cloudy
7:31 PM 69.1 °F 64.0 °F 84% 29.86 in 10.0 mi West 23.0 mph - N/A   Overcast
7:53 PM 66.9 °F 61.0 °F 81% 29.86 in 10.0 mi WSW 12.7 mph - N/A   Overcast
8:53 PM 64.9 °F 61.0 °F 87% 29.89 in 10.0 mi WSW 11.5 mph - N/A   Partly Cloudy
9:53 PM 63.0 °F 61.0 °F 93% 29.91 in 10.0 mi WSW 9.2 mph - N/A   Clear
10:53 PM 62.1 °F 61.0 °F 96% 29.93 in 9.0 mi SW 5.8 mph - N/A   Scattered Clouds
11:53 PM 62.1 °F 61.0 °F 96% 29.94 in 9.0 mi WSW 9.2 mph - N/A   Scattered Clouds